Tracking 19905 objects as of 18-Oct-2019
HD Live streaming from Space Station
objects crossing your sky now

SZ-8 MODULE


SZ-8 MODULE is no longer on orbit


NORAD ID: 37883
Int'l Code: 2011-063D
Perigee: N/A
Apogee: N/A
Inclination: N/A
Period: N/A
Semi major axis: N/A
RCS: N/A
Launch date: October 31, 2011
Source: People's Republic of China (PRC)
Launch site: Jiuquan Satellite Launch Center, China (JSC)
Decay date: 2012-04-02
aabbcc
Your satellite tracking list
Your tracking list is empty




NASA's NSSDC Master Catalog

Two Line Element Set (TLE):
1 37883U 11063D   12093.15737281  .10720753  93801-5  11384-3 0  9990
2 37883 042.7849 123.6151 0000010 037.0490 325.8805 16.50626394 21734
Source of the keplerian elements: AFSPC